STARLINK-34437

Last updated on Thu Jul 03 2025 00:02:06 GMT+0000 (Coordinated Universal Time)

1 64346U 25126C 25183.58335648 -.01405489 00000+0 -16983-1 0 9990 2 64346 69.9996 310.2352 0003505 272.6615 294.1472 15.63224117 4321
UTC large
Height (km)
Speed (km/s)
/
Latitude / Longitude
Inclination (degrees)
Orbital Period (minutes)
Azimuth
Elevation
Range (km)
Doppler Factor

Next 0 passes for location: London (51.5072 / 0.1276)

Sorry there are no passes over London.